Regional Weather Roundup
Issued by NWS

Home | Current Version | Previous Version | Text Only | Print | Product List | Glossary On
Versions: 1 2 3 4 5 6 7 8 9 10 11 12 13 14 15 16 17 18 19 20 21 22 23 24 25 26 27 28 29 30 31 32 33 34 35 36 37 38 39 40 41 42 43 44 45 46 47 48 49 50
000
ASPQ40 PGUM 240110
RWRPQ
WEATHER ROUNDUP FOR THE MARIANAS AND MICRONESIA
NATIONAL WEATHER SERVICE TIYAN GU
1100 AM CHST TUE APR 24 2018

GUZ001>004-240200-
MARIANA ISLANDS-

CITY           SKY/WX    TMP DP  RH WIND       PRES   REMARKS
GUAM AIRPORT   MOSUNNY   90  75  62 E15       29.83F HX 100
ANDERSEN AFB   PTSUNNY   84  77  79 NE12      29.83F HX  94
ROTA AIRPORT   PTSUNNY   82  77  83 NE15      29.82F HX  91
TINIAN AP      MOSUNNY   82  75  78 E17       29.81F
SAIPAN AP      MOSUNNY   86  79  79 E17       29.83F HX  99

$$

PMZ161-240200-
REPUBLIC OF PALAU-

CITY           SKY/WX    TMP DP  RH WIND       PRES   REMARKS
KOROR AP       PTSUNNY   86  75  70 SE7       29.80S HX  95
KOROR WSO      PTSUNNY   86  77  74 E6        29.80  HX  97

$$

PMZ171>174-240200-
FEDERATED STATES OF MICRONESIA-

CITY           SKY/WX    TMP DP  RH WIND       PRES   REMARKS
YAP AIRPORT    PTSUNNY   88  79  74 E10       29.79F HX 102
CHUUK AP       CLOUDY    86  79  79 NE8       29.76F HX  99
POHNPEI AP     CLOUDY    84  79  84 E9        29.77F HX  96
POHNPEI WSO    CLOUDY    84  79  84 NE7       29.80  HX  96
KOSRAE AP      CLOUDY    79  77  94 SW23      29.81

$$

PMZ181-240200-
REPUBLIC OF THE MARSHALL ISLANDS-

CITY           SKY/WX    TMP DP  RH WIND       PRES   REMARKS
KWAJALEIN AP   CLOUDY    86  77  74 E5        29.78F HX  97
MAJURO AP      NOT AVBL
MAJURO WSO     MOSUNNY   88  77  70 SE9       29.76F HX 100

$$




USA.gov is the U.S. government's official web portal to all federal, state and local government web resources and services.